Time,TemperatureF,DewpointF,PressureIn,WindDirection,WindDirectionDegrees,WindSpeedMPH,WindSpeedGustMPH,Humidity,HourlyPrecipIn,Conditions,Clouds,dailyrainin,SoftwareType,DateUTC
2013-04-03 08:02:00,32.2,-99.9,29.20,ENE,67,-999.0,-999.0,-999,-99.99,,,-99.99,,2013-04-03 07:02:00,
2013-04-03 08:08:00,34.7,-99.9,29.20,WNW,292,-999.0,-999.0,-999,-99.99,,,-99.99,,2013-04-03 07:08:00,
2013-04-03 08:10:00,35.7,-99.9,29.20,West,270,1.0,-999.0,-999,-99.99,,,-99.99,,2013-04-03 07:10:00,
2013-04-03 08:14:00,37.1,-99.9,29.20,South,180,1.0,-999.0,-999,-99.99,,,-99.99,,2013-04-03 07:14:00,
2013-04-03 08:20:00,38.4,-99.9,29.20,SE,135,2.0,-999.0,-999,-99.99,,,-99.99,,2013-04-03 07:20:00,
2013-04-03 08:28:00,40.7,-99.9,29.21,SSW,202,1.0,-999.0,-999,-99.99,,,-99.99,,2013-04-03 07:28:00,
2013-04-03 08:34:00,42.1,-99.9,29.21,South,180,3.0,-999.0,-999,-99.99,,,-99.99,,2013-04-03 07:34:00,
2013-04-03 08:40:00,43.1,-99.9,29.21,ESE,112,2.0,-999.0,-999,-99.99,,,-99.99,,2013-04-03 07:40:00,
2013-04-03 08:48:00,44.2,-99.9,29.21,SSW,202,-999.0,-999.0,-999,-99.99,,,-99.99,,2013-04-03 07:48:00,
2013-04-03 08:54:00,44.6,-99.9,29.21,ESE,112,2.0,-999.0,-999,-99.99,,,-99.99,,2013-04-03 07:54:00,
2013-04-03 09:00:00,44.9,-99.9,29.22,SE,135,4.0,-999.0,-999,-99.99,,,-99.99,,2013-04-03 08:00:00,
2013-04-03 09:06:00,44.8,-99.9,29.22,SW,225,5.0,-999.0,-999,-99.99,,,-99.99,,2013-04-03 08:06:00,
2013-04-03 09:13:00,43.5,-99.9,29.22,ESE,112,4.0,-999.0,-999,-99.99,,,-99.99,,2013-04-03 08:13:00,
2013-04-03 09:19:00,42.0,-99.9,29.22,SSW,202,5.0,-999.0,-999,-99.99,,,-99.99,,2013-04-03 08:19:00,
2013-04-03 09:25:00,43.0,-99.9,29.22,South,180,4.0,-999.0,-999,-99.99,,,-99.99,,2013-04-03 08:25:00,
2013-04-03 09:34:00,44.5,-99.9,29.22,SW,225,6.0,-999.0,-999,-99.99,,,-99.99,,2013-04-03 08:34:00,
2013-04-03 09:39:00,45.0,-99.9,29.22,South,180,5.0,-999.0,-999,-99.99,,,-99.99,,2013-04-03 08:39:00,
2013-04-03 09:45:00,46.2,-99.9,29.22,ENE,67,8.0,-999.0,-999,-99.99,,,-99.99,,2013-04-03 08:45:00,
2013-04-03 09:51:00,46.7,-99.9,29.22,SE,135,6.0,-999.0,-999,-99.99,,,-99.99,,2013-04-03 08:51:00,
2013-04-03 09:58:00,47.1,-99.9,29.22,NNE,22,7.0,-999.0,-999,-99.99,,,-99.99,,2013-04-03 08:58:00,
2013-04-03 10:04:00,47.0,-99.9,29.22,SE,135,6.0,-999.0,-999,-99.99,,,-99.99,,2013-04-03 09:04:00,
2013-04-03 10:13:00,46.1,-99.9,29.22,South,180,8.0,-999.0,-999,-99.99,,,-99.99,,2013-04-03 09:13:00,
2013-04-03 10:19:00,46.7,-99.9,29.22,WSW,247,9.0,-999.0,-999,-99.99,,,-99.99,,2013-04-03 09:19:00,
2013-04-03 10:26:00,47.0,-99.9,29.22,South,180,8.0,-999.0,-999,-99.99,,,-99.99,,2013-04-03 09:26:00,
2013-04-03 10:32:00,45.5,-99.9,29.22,ESE,112,8.0,-999.0,-999,-99.99,,,-99.99,,2013-04-03 09:32:00,
2013-04-03 10:39:00,47.1,-99.9,29.22,South,180,-999.0,-999.0,-999,-99.99,,,-99.99,,2013-04-03 09:39:00,
2013-04-03 10:45:00,45.7,-99.9,29.22,SSE,157,13.0,-999.0,-999,-99.99,,,-99.99,,2013-04-03 09:45:00,
2013-04-03 10:53:00,41.5,-99.9,29.22,WSW,247,5.0,-999.0,-999,-99.99,,,-99.99,,2013-04-03 09:53:00,
2013-04-03 11:00:00,40.3,-99.9,29.22,SSW,202,9.0,-999.0,-999,-99.99,,,-99.99,,2013-04-03 10:00:00,
2013-04-03 11:06:00,41.2,-99.9,29.22,SE,135,6.0,-999.0,-999,-99.99,,,-99.99,,2013-04-03 10:06:00,
2013-04-03 11:12:00,43.5,-99.9,29.22,ESE,112,5.0,-999.0,-999,-99.99,,,-99.99,,2013-04-03 10:12:00,
2013-04-03 11:18:00,47.2,-99.9,29.22,South,180,9.0,-999.0,-999,-99.99,,,-99.99,,2013-04-03 10:18:00,
2013-04-03 11:25:00,46.4,-99.9,29.22,ESE,112,9.0,-999.0,-999,-99.99,,,-99.99,,2013-04-03 10:25:00,
2013-04-03 11:33:00,47.1,-99.9,29.22,South,180,8.0,-999.0,-999,-99.99,,,-99.99,,2013-04-03 10:33:00,
2013-04-03 11:39:00,48.7,-99.9,29.22,SW,225,12.0,-999.0,-999,-99.99,,,-99.99,,2013-04-03 10:39:00,
2013-04-03 11:46:00,50.6,-99.9,29.22,ESE,112,7.0,-999.0,-999,-99.99,,,-99.99,,2013-04-03 10:46:00,
2013-04-03 11:52:00,52.4,-99.9,29.22,South,180,10.0,-999.0,-999,-99.99,,,-99.99,,2013-04-03 10:52:00,
2013-04-03 11:58:00,51.6,-99.9,29.22,SSW,202,8.0,-999.0,-999,-99.99,,,-99.99,,2013-04-03 10:58:00,
2013-04-03 12:05:00,51.7,-99.9,29.21,ESE,112,9.0,-999.0,-999,-99.99,,,-99.99,,2013-04-03 11:05:00,
2013-04-03 12:11:00,49.7,-99.9,29.21,East,90,8.0,-999.0,-999,-99.99,,,-99.99,,2013-04-03 11:11:00,
2013-04-03 12:18:00,46.2,-99.9,29.21,ESE,112,5.0,-999.0,-999,-99.99,,,-99.99,,2013-04-03 11:18:00,
2013-04-03 12:24:00,45.0,-99.9,29.21,SE,135,7.0,-999.0,-999,-99.99,,,-99.99,,2013-04-03 11:24:00,
2013-04-03 12:30:00,49.0,-99.9,29.21,South,180,9.0,-999.0,-999,-99.99,,,-99.99,,2013-04-03 11:30:00,
2013-04-03 12:37:00,51.1,-99.9,29.21,South,180,12.0,-999.0,-999,-99.99,,,-99.99,,2013-04-03 11:37:00,
2013-04-03 12:43:00,51.8,-99.9,29.21,SE,135,12.0,-999.0,-999,-99.99,,,-99.99,,2013-04-03 11:43:00,
2013-04-03 12:49:00,52.1,-99.9,29.21,SE,135,6.0,-999.0,-999,-99.99,,,-99.99,,2013-04-03 11:49:00,
2013-04-03 12:56:00,54.2,-99.9,29.21,SSE,157,13.0,-999.0,-999,-99.99,,,-99.99,,2013-04-03 11:56:00,
2013-04-03 13:02:00,51.9,-99.9,29.21,SE,135,10.0,-999.0,-999,-99.99,,,-99.99,,2013-04-03 12:02:00,
2013-04-03 13:08:00,48.8,-99.9,29.21,NW,315,6.0,-999.0,-999,-99.99,,,-99.99,,2013-04-03 12:08:00,
2013-04-03 13:15:00,47.2,-99.9,29.21,ESE,112,8.0,-999.0,-999,-99.99,,,-99.99,,2013-04-03 12:15:00,
2013-04-03 13:23:00,45.8,-99.9,29.21,ESE,112,9.0,-999.0,-999,-99.99,,,-99.99,,2013-04-03 12:23:00,
2013-04-03 13:29:00,44.9,-99.9,29.21,ESE,112,9.0,-999.0,-999,-99.99,,,-99.99,,2013-04-03 12:29:00,
2013-04-03 13:35:00,44.3,-99.9,29.21,ENE,67,8.0,-999.0,-999,-99.99,,,-99.99,,2013-04-03 12:35:00,
2013-04-03 13:42:00,44.3,-99.9,29.21,ESE,112,6.0,-999.0,-999,-99.99,,,-99.99,,2013-04-03 12:42:00,
2013-04-03 13:48:00,44.4,-99.9,29.20,East,90,9.0,-999.0,-999,-99.99,,,-99.99,,2013-04-03 12:48:00,
2013-04-03 13:54:00,45.3,-99.9,29.20,ENE,67,5.0,-999.0,-999,-99.99,,,-99.99,,2013-04-03 12:54:00,
2013-04-03 14:01:00,45.3,-99.9,29.20,SSE,157,8.0,-999.0,-999,-99.99,,,-99.99,,2013-04-03 13:01:00,
2013-04-03 14:07:00,44.6,-99.9,29.20,ENE,67,8.0,-999.0,-999,-99.99,,,-99.99,,2013-04-03 13:07:00,
2013-04-03 14:13:00,44.0,-99.9,29.20,ESE,112,10.0,-999.0,-999,-99.99,,,-99.99,,2013-04-03 13:13:00,
2013-04-03 14:20:00,43.8,-99.9,29.20,SW,225,6.0,-999.0,-999,-99.99,,,-99.99,,2013-04-03 13:20:00,
2013-04-03 14:27:00,44.4,-99.9,29.20,SW,225,6.0,-999.0,-999,-99.99,,,-99.99,,2013-04-03 13:27:00,
2013-04-03 14:33:00,44.4,-99.9,29.20,East,90,8.0,-999.0,-999,-99.99,,,-99.99,,2013-04-03 13:33:00,
2013-04-03 14:39:00,43.9,-99.9,29.20,East,90,9.0,-999.0,-999,-99.99,,,-99.99,,2013-04-03 13:39:00,
2013-04-03 14:46:00,43.5,-99.9,29.20,SE,135,8.0,-999.0,-999,-99.99,,,-99.99,,2013-04-03 13:46:00,
2013-04-03 14:52:00,48.2,-99.9,29.20,North,0,7.0,-999.0,-999,-99.99,,,-99.99,,2013-04-03 13:52:00,
2013-04-03 14:57:00,48.5,-99.9,29.20,ESE,112,8.0,-999.0,-999,-99.99,,,-99.99,,2013-04-03 13:57:00,
2013-04-03 15:03:00,45.7,-99.9,29.19,ESE,112,8.0,-999.0,-999,-99.99,,,-99.99,,2013-04-03 14:03:00,
2013-04-03 15:08:00,46.1,-99.9,29.20,ESE,112,-999.0,-999.0,-999,-99.99,,,-99.99,,2013-04-03 14:08:00,
2013-04-03 15:15:00,47.6,-99.9,29.19,ENE,67,8.0,-999.0,-999,-99.99,,,-99.99,,2013-04-03 14:15:00,
2013-04-03 15:24:00,49.7,-99.9,29.19,East,90,-999.0,-999.0,-999,-99.99,,,-99.99,,2013-04-03 14:24:00,
2013-04-03 15:30:00,49.4,-99.9,29.19,SSE,157,7.0,-999.0,-999,-99.99,,,-99.99,,2013-04-03 14:30:00,
2013-04-03 15:36:00,46.1,-99.9,29.19,SE,135,7.0,-999.0,-999,-99.99,,,-99.99,,2013-04-03 14:36:00,
2013-04-03 15:42:00,44.6,-99.9,29.19,SW,225,6.0,-999.0,-999,-99.99,,,-99.99,,2013-04-03 14:42:00,
2013-04-03 15:49:00,47.3,-99.9,29.19,South,180,9.0,-999.0,-999,-99.99,,,-99.99,,2013-04-03 14:49:00,
2013-04-03 15:55:00,49.3,-99.9,29.19,ENE,67,7.0,-999.0,-999,-99.99,,,-99.99,,2013-04-03 14:55:00,
2013-04-03 16:02:00,48.1,-99.9,29.19,SE,135,9.0,-999.0,-999,-99.99,,,-99.99,,2013-04-03 15:02:00,
2013-04-03 16:08:00,44.4,-99.9,29.19,SE,135,5.0,-999.0,-999,-99.99,,,-99.99,,2013-04-03 15:08:00,
2013-04-03 16:14:00,42.7,-99.9,29.19,SE,135,5.0,-999.0,-999,-99.99,,,-99.99,,2013-04-03 15:14:00,
2013-04-03 16:21:00,46.4,-99.9,29.18,SE,135,9.0,-999.0,-999,-99.99,,,-99.99,,2013-04-03 15:21:00,
2013-04-03 16:27:00,46.6,-99.9,29.18,SE,135,11.0,-999.0,-999,-99.99,,,-99.99,,2013-04-03 15:27:00,
2013-04-03 16:33:00,43.6,-99.9,29.18,SE,135,8.0,-999.0,-999,-99.99,,,-99.99,,2013-04-03 15:33:00,
2013-04-03 16:40:00,43.1,-99.9,29.18,East,90,10.0,-999.0,-999,-99.99,,,-99.99,,2013-04-03 15:40:00,
2013-04-03 16:48:00,46.6,-99.9,29.18,ESE,112,11.0,-999.0,-999,-99.99,,,-99.99,,2013-04-03 15:48:00,
2013-04-03 16:54:00,48.3,-99.9,29.18,ENE,67,7.0,-999.0,-999,-99.99,,,-99.99,,2013-04-03 15:54:00,
2013-04-03 17:01:00,49.0,-99.9,29.18,SSE,157,9.0,-999.0,-999,-99.99,,,-99.99,,2013-04-03 16:01:00,
2013-04-03 17:08:00,48.8,-99.9,29.18,NNE,22,-999.0,-999.0,-999,-99.99,,,-99.99,,2013-04-03 16:08:00,
2013-04-03 17:14:00,48.2,-99.9,29.18,NW,315,5.0,-999.0,-999,-99.99,,,-99.99,,2013-04-03 16:14:00,
2013-04-03 17:20:00,47.8,-99.9,29.18,SE,135,9.0,-999.0,-999,-99.99,,,-99.99,,2013-04-03 16:20:00,
2013-04-03 17:27:00,47.2,-99.9,29.18,ESE,112,8.0,-999.0,-999,-99.99,,,-99.99,,2013-04-03 16:27:00,
2013-04-03 17:33:00,47.3,-99.9,29.18,NW,315,7.0,-999.0,-999,-99.99,,,-99.99,,2013-04-03 16:33:00,
2013-04-03 17:39:00,45.4,-99.9,29.18,ENE,67,8.0,-999.0,-999,-99.99,,,-99.99,,2013-04-03 16:39:00,
2013-04-03 17:45:00,43.0,-99.9,29.18,SSE,157,8.0,-999.0,-999,-99.99,,,-99.99,,2013-04-03 16:45:00,
2013-04-03 17:52:00,41.0,-99.9,29.18,SE,135,5.0,-999.0,-999,-99.99,,,-99.99,,2013-04-03 16:52:00,
2013-04-03 17:58:00,39.5,-99.9,29.19,SE,135,11.0,-999.0,-999,-99.99,,,-99.99,,2013-04-03 16:58:00,
2013-04-03 18:04:00,38.9,-99.9,29.19,South,180,6.0,-999.0,-999,-99.99,,,-99.99,,2013-04-03 17:04:00,
2013-04-03 18:11:00,38.3,-99.9,29.19,ESE,112,8.0,-999.0,-999,-99.99,,,-99.99,,2013-04-03 17:11:00,
2013-04-03 18:17:00,38.3,-99.9,29.19,NNE,22,7.0,-999.0,-999,-99.99,,,-99.99,,2013-04-03 17:17:00,
2013-04-03 18:23:00,39.7,-99.9,29.19,WSW,247,7.0,-999.0,-999,-99.99,,,-99.99,,2013-04-03 17:23:00,
2013-04-03 18:29:00,38.8,-99.9,29.19,NNE,22,6.0,-999.0,-999,-99.99,,,-99.99,,2013-04-03 17:29:00,
2013-04-03 18:36:00,37.3,-99.9,29.19,ESE,112,11.0,-999.0,-999,-99.99,,,-99.99,,2013-04-03 17:36:00,
2013-04-03 18:42:00,36.7,-99.9,29.19,ENE,67,13.0,-999.0,-999,-99.99,,,-99.99,,2013-04-03 17:42:00,
2013-04-03 18:51:00,36.2,-99.9,29.19,ESE,112,-999.0,-999.0,-999,-99.99,,,-99.99,,2013-04-03 17:51:00,
2013-04-03 18:57:00,35.9,-99.9,29.19,ENE,67,7.0,-999.0,-999,-99.99,,,-99.99,,2013-04-03 17:57:00,
2013-04-03 19:03:00,35.8,-99.9,29.19,SE,135,6.0,-999.0,-999,-99.99,,,-99.99,,2013-04-03 18:03:00,
2013-04-03 19:09:00,35.8,-99.9,29.19,ESE,112,7.0,-999.0,-999,-99.99,,,-99.99,,2013-04-03 18:09:00,
2013-04-03 19:16:00,36.0,-99.9,29.19,NNW,337,5.0,-999.0,-999,-99.99,,,-99.99,,2013-04-03 18:16:00,
2013-04-03 19:22:00,36.3,-99.9,29.19,East,90,2.0,-999.0,-999,-99.99,,,-99.99,,2013-04-03 18:22:00,
2013-04-03 19:29:00,36.3,-99.9,29.19,SSW,202,7.0,-999.0,-999,-99.99,,,-99.99,,2013-04-03 18:29:00,
2013-04-03 19:35:00,36.2,-99.9,29.19,South,180,5.0,-999.0,-999,-99.99,,,-99.99,,2013-04-03 18:35:00,
2013-04-03 19:41:00,35.8,-99.9,29.19,ESE,112,4.0,-999.0,-999,-99.99,,,-99.99,,2013-04-03 18:41:00,
2013-04-03 19:48:00,35.6,-99.9,29.19,ENE,67,2.0,-999.0,-999,-99.99,,,-99.99,,2013-04-03 18:48:00,
2013-04-03 19:54:00,35.5,-99.9,29.20,ESE,112,3.0,-999.0,-999,-99.99,,,-99.99,,2013-04-03 18:54:00,
2013-04-03 20:00:00,35.2,-99.9,29.20,SE,135,2.0,-999.0,-999,-99.99,,,-99.99,,2013-04-03 19:00:00,
2013-04-03 20:07:00,34.9,-99.9,29.19,SE,135,0.0,-999.0,-999,-99.99,,,-99.99,,2013-04-03 19:07:00,
2013-04-03 20:13:00,34.8,-99.9,29.19,ESE,112,0.0,-999.0,-999,-99.99,,,-99.99,,2013-04-03 19:13:00,
2013-04-03 20:19:00,34.6,-99.9,29.19,SE,135,4.0,-999.0,-999,-99.99,,,-99.99,,2013-04-03 19:19:00,
2013-04-03 20:26:00,34.6,-99.9,29.19,NNE,22,2.0,-999.0,-999,-99.99,,,-99.99,,2013-04-03 19:26:00,
2013-04-03 20:34:00,34.4,-99.9,29.20,NNE,22,2.0,-999.0,-999,-99.99,,,-99.99,,2013-04-03 19:34:00,
2013-04-03 20:40:00,34.2,-99.9,29.20,NNE,22,0.0,-999.0,-999,-99.99,,,-99.99,,2013-04-03 19:40:00,
2013-04-03 20:46:00,34.2,-99.9,29.20,NNE,22,0.0,-999.0,-999,-99.99,,,-99.99,,2013-04-03 19:46:00,
2013-04-03 20:55:00,34.2,-99.9,29.20,ENE,67,2.0,-999.0,-999,-99.99,,,-99.99,,2013-04-03 19:55:00,
2013-04-03 21:01:00,34.1,-99.9,29.20,NNE,22,2.0,-999.0,-999,-99.99,,,-99.99,,2013-04-03 20:01:00,
2013-04-03 21:08:00,34.1,-99.9,29.20,East,90,0.0,-999.0,-999,-99.99,,,-99.99,,2013-04-03 20:08:00,
2013-04-03 21:14:00,34.0,-99.9,29.20,ENE,67,4.0,-999.0,-999,-99.99,,,-99.99,,2013-04-03 20:14:00,
2013-04-03 21:20:00,33.9,-99.9,29.20,North,0,4.0,-999.0,-999,-99.99,,,-99.99,,2013-04-03 20:20:00,
2013-04-03 21:26:00,33.7,-99.9,29.20,NE,45,2.0,-999.0,-999,-99.99,,,-99.99,,2013-04-03 20:26:00,
2013-04-03 21:33:00,33.3,-99.9,29.20,NE,45,3.0,-999.0,-999,-99.99,,,-99.99,,2013-04-03 20:33:00,
2013-04-03 21:41:00,33.0,-99.9,29.20,NE,45,2.0,-999.0,-999,-99.99,,,-99.99,,2013-04-03 20:41:00,
2013-04-03 21:48:00,32.6,-99.9,29.20,NE,45,2.0,-999.0,-999,-99.99,,,-99.99,,2013-04-03 20:48:00,
2013-04-03 21:54:00,32.3,-99.9,29.20,ENE,67,4.0,-999.0,-999,-99.99,,,-99.99,,2013-04-03 20:54:00,
2013-04-03 22:01:00,32.0,-99.9,29.20,ENE,67,4.0,-999.0,-999,-99.99,,,-99.99,,2013-04-03 21:01:00,
2013-04-03 22:07:00,31.8,-99.9,29.20,ENE,67,5.0,-999.0,-999,-99.99,,,-99.99,,2013-04-03 21:07:00,
2013-04-03 22:13:00,31.5,-99.9,29.20,NNE,22,6.0,-999.0,-999,-99.99,,,-99.99,,2013-04-03 21:13:00,
2013-04-03 22:20:00,31.4,-99.9,29.20,ENE,67,5.0,-999.0,-999,-99.99,,,-99.99,,2013-04-03 21:20:00,
2013-04-03 22:26:00,31.7,-99.9,29.20,NW,315,5.0,-999.0,-999,-99.99,,,-99.99,,2013-04-03 21:26:00,
2013-04-03 22:32:00,32.2,-99.9,29.20,NE,45,5.0,-999.0,-999,-99.99,,,-99.99,,2013-04-03 21:32:00,
2013-04-03 22:43:00,32.8,-99.9,29.20,NNE,22,1.0,-999.0,-999,-99.99,,,-99.99,,2013-04-03 21:43:00,
2013-04-03 22:49:00,32.9,-99.9,29.20,ENE,67,1.0,-999.0,-999,-99.99,,,-99.99,,2013-04-03 21:49:00,
2013-04-03 22:55:00,33.0,-99.9,29.20,ENE,67,4.0,-999.0,-999,-99.99,,,-99.99,,2013-04-03 21:55:00,
2013-04-03 23:02:00,33.0,-99.9,29.20,NNE,22,2.0,-999.0,-999,-99.99,,,-99.99,,2013-04-03 22:02:00,
2013-04-03 23:08:00,33.1,-99.9,29.20,ENE,67,2.0,-999.0,-999,-99.99,,,-99.99,,2013-04-03 22:08:00,
2013-04-03 23:15:00,33.5,-99.9,29.20,ENE,67,-999.0,-999.0,-999,-99.99,,,-99.99,,2013-04-03 22:15:00,
2013-04-03 23:23:00,33.7,-99.9,29.20,ENE,67,4.0,-999.0,-999,-99.99,,,-99.99,,2013-04-03 22:23:00,
2013-04-03 23:29:00,33.7,-99.9,29.20,NNE,22,5.0,-999.0,-999,-99.99,,,-99.99,,2013-04-03 22:29:00,
2013-04-03 23:36:00,33.8,-99.9,29.20,ENE,67,4.0,-999.0,-999,-99.99,,,-99.99,,2013-04-03 22:36:00,
2013-04-03 23:42:00,33.8,-99.9,29.19,North,0,4.0,-999.0,-999,-99.99,,,-99.99,,2013-04-03 22:42:00,
2013-04-03 23:49:00,33.8,-99.9,29.19,SW,225,5.0,-999.0,-999,-99.99,,,-99.99,,2013-04-03 22:49:00,
2013-04-03 23:55:00,33.8,-99.9,29.19,SE,135,6.0,-999.0,-999,-99.99,,,-99.99,,2013-04-03 22:55:00,